Regional Weather Roundup
Issued by NWS

Home | Current Version | Previous Version | Graphics & Text | Print | Product List | Glossary On
Versions: 1 2 3 4 5 6 7 8 9 10 11 12 13 14 15 16 17 18 19 20 21 22 23 24 25 26 27
000
ASUS45 KBOU 202107
RWRCO

WEATHER ROUNDUP FOR COLORADO
NATIONAL WEATHER SERVICE DENVER/BOULDER CO
300 PM MDT FRI OCT 20 2017

NOTE: "FAIR" INDICATES FEW OR NO CLOUDS BELOW 12000 FEET WITH NO
SIGNIFICANT WEATHER AND/OR OBSTRUCTIONS TO VISIBILITY.

COZ001>005-013-030-031-202200-
...NORTHWEST COLORADO...

CITY           SKY/WX    TMP DP  RH WIND       PRES   REMARKS
CRAIG          PTSUNNY   71  22  15 SW38G47   29.63F
HAYDEN         FAIR      67  25  20 SW25G35   29.67F
MEEKER         FAIR      69  29  22 S25G33    29.66F
RABBIT EARS PA CLOUDY    46  25  42 SW8G22    29.89S
STEAMBOAT SPGS PTSUNNY   63  27  25 SW16G28   29.69F
WALDEN         NOT AVBL
$$

COZ006>008-011-202200-
...WEST CENTRAL VALLEYS...

CITY           SKY/WX    TMP DP  RH WIND       PRES   REMARKS
GRAND JUNCTION PTSUNNY   76  29  17 SW13      29.62F
MONTROSE       FAIR      72  24  16 SW20G29   29.73F
EAGLE          PTSUNNY   69  28  21 SW31G38   29.72F
RIFLE          PTSUNNY   72  26  18 SW15G26   29.65F
DELTA          FAIR      77  23  13 SW18G25   29.68F
NUCLA          FAIR      72  23  16 S24G32    29.78F
$$

COZ017>023-064>068-202200-
...SOUTHWEST COLORADO...

CITY           SKY/WX    TMP DP  RH WIND       PRES   REMARKS
DURANGO        FAIR      68  28  22 SW20G26   29.88F
CORTEZ         FAIR      73  24  16 S21G30    29.81F
PAGOSA SPRINGS FAIR      61  25  25 SW14G22   29.94F
TELLURIDE      PTSUNNY   57  22  26 SE13G22   29.94F
WOLF CREEK PAS PTSUNNY   37  28  70 S29G45    30.09F
$$

COZ009-010-012-014-032>034-037-058>063-202200-
...CENTRAL COLORADO...

CITY           SKY/WX    TMP DP  RH WIND       PRES   REMARKS
ASPEN          PTSUNNY   63  22  20 MISG      29.79F
BUENA VISTA    PTSUNNY   64  12  13 SW7G37    29.78F
COPPER MTN     FAIR      46  16  29 W8G25     30.01S
BERTHOUD PASS  FAIR      37  30  75 W33G40    30.00S
COTTONWOOD PAS FAIR      63  14  15 SW9G30    29.88F
GUNNISON       FAIR      65  22  19 W18G28    29.80F
KREMMLING      PTSUNNY   68  21  17 SW18G31   29.76S
LEADVILLE      FAIR      51  12  21 W16G28    29.88F
MONARCH PASS   FAIR      45  21  39 W39G46    30.11F
SALIDA         FAIR      70  21  15 W17G30    29.83F
SUNLIGHT       PTSUNNY   46  25  42 SW17G40   29.95F
WILKERSON PASS PTSUNNY   50  19  29 S10G22    29.99R
$$

COZ069>075-202200-
...SAN LUIS VALLEY/SANGRE DE CRISTO MOUNTAINS...

CITY           SKY/WX    TMP DP  RH WIND       PRES   REMARKS
ALAMOSA        FAIR      63  24  22 SW22G31   29.87S
DEL NORTE      FAIR      61  27  27 SW24G35   29.88F
LA VETA PASS   FAIR      54  28  37 S37G58    30.02F
SAGUACHE       FAIR      64  25  22 W20G29    29.83F
$$

COZ035-036-038>040-202200-
...NORTHERN COLORADO FRONT RANGE...

CITY           SKY/WX    TMP DP  RH WIND       PRES   REMARKS
DENVER INTL AP FAIR      76  29  17 S12       29.57F
DMNS CITY PARK   N/A     75  25  15 SE9G20    29.55F
AURORA         PTSUNNY   77  29  17 S17G25    29.59F
FRONT RANGE AP MOSUNNY   77  28  16 SE6       29.59F
ERIE MUNI ARPT FAIR      76  26  15 E6        29.59F
BOULDER MUN AP FAIR      75  32  20 CALM      29.56F
CENTENNIAL     FAIR      74  25  16 S14       29.59F
BROOMFIELD     PTSUNNY   75  28  17 E9        29.59F
FORT COLLINS   FAIR      76  35  22 S12       29.56F
LONGMONT       FAIR      79  29  16 SE3       29.57S
$$

COZ041-046-047-076>085-087-088-202200-
...PIKES PEAK/PALMER DIVIDE AND SOUTHERN FOOTHILLS...

CITY           SKY/WX    TMP DP  RH WIND       PRES   REMARKS
COLO. SPRINGS  FAIR      75  30  19 SW30G37   29.66F
A. F. ACADEMY  FAIR      72  26  18 SW9       29.68S
SCHRIEVER AFB  FAIR      73  27  18 SW22G28   29.68F
CHEYENNE MTN   FAIR      68  25  19 SE16G24   29.65F
ELLICOTT         N/A    N/A N/A N/A SW20G29   29.66F
FALCON         FAIR      72  24  16 SW20G30   29.72S
FORT CARSON    FAIR      75  27  16 S24       29.64F
LIMON          FAIR      76  29  17 S15G22    29.60F
MONUMENT HILL  FAIR      68  27  21 W12G22    29.72S
CANON CITY     FAIR      79  30  17 W9G18     29.62F
WALSENBURG     FAIR      72  30  21 SW24G31   29.71F
TRINIDAD       FAIR      76  29  17 SW25G37   29.71F
$$

COZ042>045-048>051-090-091-202200-
...NORTHEAST COLORADO...

CITY           SKY/WX    TMP DP  RH WIND       PRES   REMARKS
GREELEY ARPT   FAIR      79  35  20 S8        29.55F
AKRON          FAIR      77  32  19 SE10      29.57F
BURLINGTON     FAIR      79  40  24 S16G25    29.57F
WRAY           NOT AVBL
YUMA           NOT AVBL
STERLING       FAIR      79  34  19 SW6       29.51F
HOLYOKE        FAIR      79  45  29 SE12      29.53F
FORT MORGAN    FAIR      80  26  13 SE13G18   29.55F
$$

COZ086-089-092>099-202200-
...SOUTHEAST COLORADO...

CITY           SKY/WX    TMP DP  RH WIND       PRES   REMARKS
PUEBLO         FAIR      81  28  14 W6        29.58F
LA JUNTA       FAIR      83  32  16 SW23G29   29.59F
LAMAR          FAIR      85  34  16 SW7G16    29.55F
SPRINGFIELD    NOT AVBL
$$




USA.gov is the U.S. government's official web portal to all federal, state and local government web resources and services.